Location: Unspecified
(0.0000°N, 0.0000°E)
Time: 00:10:24
(UTC+00:00)

STARLINK-32315 - Pass Details

Date: 22 April 2025
Orbit: 474 x 476 km, 53.2° (Epoch: 16 May)

Event Time Altitude Azimuth Distance (km) Brightness Sun altitude
Rises 19:01:01 0° 329° (NNW) 2,506 7.7 -15.3°
Reaches altitude 10° 19:03:10 10° 331° (NNW) 1,631 6.6 -15.8°
Maximum altitude 19:06:50 75° 57° (ENE) 493 3.2 -16.7°
Enters shadow 19:08:15 35° 135° (SE) 776 3.9 -17.0°
